[[{"header":{"parameterUnit":"m.s-1","parameterCategory":1,"la1":30.2991,"la2":30.254,"lo1":-89.0895,"lo2":-89.0444,"dy":0.0017,"dx":0.0017,"nx":28,"ny":28,"refTime":"2024-04-27T21:00:00:Z","depth":0,"parameterNumber":2,"parameterNumberName":"U-component_of_WINDS"},"data":[0,0,0,0,0,0,0,0,0,0,0,0,0,0,0,0,0,0,0,0,0,0,0,0,0,0,0,0,0,0,0,0,0,0,0,0,0,0,0,0,0,0,0,0,0,0,0,0,0,0,0,0,0,0,0,0,0,0,-3.7809,-3.7811,0,-3.7952,-3.7954,-3.7955,-3.7971,-3.797,-3.7968,-3.7967,-3.8111,-3.8116,-3.8121,0,0,0,0,0,0,0,0,0,0,0,0,0,-3.7548,-3.7553,-3.7809,-3.7811,-3.7813,-3.7952,-3.7954,-3.7956,-3.7971,-3.797,-3.7968,-3.7966,-3.8109,-3.8115,-3.8121,0,0,0,0,0,0,0,0,0,0,0,0,0,-3.7673,-3.7554,-3.7809,-3.7837,-3.7841,-3.7952,-3.7954,-3.7956,-3.7972,-3.797,-3.7967,-3.7965,-3.8107,-3.8114,-3.8122,-3.8213,0,0,-3.8146,-3.8149,0,0,0,0,0,0,0,0,-3.7666,-3.7683,-3.7831,-3.7836,-3.784,-3.7942,-3.7914,-3.8042,-3.7972,-3.7922,-3.7967,-3.7964,-3.8056,-3.8068,-3.8099,-3.8219,-3.8226,-3.8146,-3.8151,-3.8154,-3.8157,0,0,0,0,0,0,0,-3.7657,-3.7676,-3.7866,-3.7833,-3.7839,-3.7842,-3.7858,-3.7939,-3.7999,-3.7926,-3.7928,-3.7945,-3.8058,-3.8092,-3.8103,-3.8228,-3.8146,-3.8153,-3.8158,-3.8161,-3.843,-3.8432,0,0,0,0,0,0,-3.7644,-3.7669,-3.7861,-3.787,-3.7746,-3.7849,-3.7866,-3.7911,-3.7998,-3.801,-3.7946,-3.7945,-3.8079,-3.8094,-3.8108,-3.8219,-3.8154,-3.8162,-3.8166,-3.8427,-3.843,-3.8433,0,0,0,0,0,0,-3.7638,-3.766,-3.7855,-3.777,-3.7795,-3.7856,-3.7906,-3.7915,-3.7949,-3.8014,-3.8024,-3.797,-3.8078,-3.8097,-3.8187,-3.8225,-3.8165,-3.8172,-3.8424,-3.8428,-3.8432,-3.8444,0,0,0,0,0,0,-3.763,-3.7658,-3.7694,-3.7771,-3.78,-3.7933,-3.7909,-3.792,-3.7963,-3.7962,-3.8038,-3.8049,-3.8078,-3.8175,-3.8194,-3.8234,-3.8178,-3.8421,-3.8426,-3.843,-3.844,-3.8447,-3.8453,0,0,0,0,0,-3.7621,-3.7691,-3.7696,-3.7719,-3.7845,-3.7935,-3.7951,-3.7984,-3.7966,-3.8001,-3.8043,-3.8047,-3.8218,-3.8184,-3.8206,-3.8249,-3.8419,-3.8425,-3.843,-3.8437,-3.8446,-3.8453,0,0,0,0,0,0,-3.7616,-3.7702,-3.7708,-3.7805,-3.7863,-3.7937,-3.7983,-3.7992,-3.8056,-3.8052,-3.809,-3.8107,-3.8195,-3.8231,-3.8192,-3.8341,-3.8316,-3.8327,-3.8314,-3.8323,-3.833,-3.8318,-3.8185,0,0,0,0,0,-3.7626,-3.7692,-3.7763,-3.7842,-3.7871,-3.7922,-3.7962,-3.7983,-3.8044,-3.8068,-3.8116,-3.8174,-3.8241,-3.8284,-3.8349,-3.8446,-3.8462,-3.8486,-3.8493,-3.8498,-3.8506,-3.8559,-3.857,-3.8451,-3.8451,-3.8451,0,0,-3.7648,-3.7703,-3.7742,-3.7843,-3.789,-3.7957,-3.7943,-3.8014,-3.8064,-3.8078,-3.8166,-3.8204,-3.8271,-3.8365,-3.8408,-3.8397,-3.8543,-3.8505,-3.8509,-3.8514,-3.8566,-3.8577,-3.8587,-3.8455,-3.8455,-3.8454,0,0,-3.7722,-3.777,-3.7841,-3.7889,-3.7961,-3.7995,-3.8012,-3.8086,-3.8111,-3.8201,-3.8213,-3.8272,-3.8387,-3.8435,-3.8474,-3.8566,-3.8572,-3.8587,-3.8621,-3.8673,-3.8682,-3.869,-3.8723,-3.8734,-3.8595,-3.8595,-3.8595,0,-3.7739,-3.7841,-3.7876,-3.7948,-3.7991,-3.8009,-3.8081,-3.8125,-3.8214,-3.8244,-3.8231,-3.8375,-3.8422,-3.8526,-3.8549,-3.8581,-3.8601,-3.8577,-3.8678,-3.8687,-3.8695,-3.8726,-3.8738,-3.8596,-3.8596,-3.8596,-3.8596,0,-3.7859,-3.793,-3.7978,-3.8065,-3.8114,-3.8185,-3.823,-3.8276,-3.8292,-3.8327,-3.8418,-3.8475,-3.8551,-3.8578,-3.8595,-3.8685,-3.8676,-3.867,-3.8646,-3.8707,-3.8737,-3.8749,-3.8598,-3.8597,-3.8597,-3.8597,0,0,-3.7932,-3.8038,-3.8055,-3.8095,-3.8176,-3.8231,-3.8302,-3.8379,-3.8417,-3.8478,-3.8538,-3.8636,-3.8631,-3.8675,-3.8697,-3.8743,-3.8812,-3.8731,-3.8733,-3.8743,-3.8914,-3.8917,-3.8931,-3.8816,-3.8819,-3.8821,-3.8908,0,-3.8015,-3.8144,-3.8178,-3.8287,-3.8352,-3.8371,-3.8433,-3.8489,-3.8524,-3.8584,-3.8622,-3.869,-3.8679,-3.8706,-3.8752,-3.8793,-3.8846,-3.8788,-3.8872,-3.8874,-3.8853,-3.8947,-3.895,-3.903,-3.892,-3.8922,-3.8924,0,-3.8128,-3.8192,-3.8308,-3.838,-3.8409,-3.8465,-3.8537,-3.8595,-3.8659,-3.8681,-3.8731,-3.8749,-3.8824,-3.8797,-3.89,-3.8859,-3.8896,-3.8922,-3.8926,-3.8934,-3.8902,-3.8956,-3.9056,-3.9068,-3.8943,-3.8941,-3.894,0,-3.8168,-3.8284,-3.8368,-3.8402,-3.8489,-3.8527,-3.8565,-3.8627,-3.8671,-3.8734,-3.8763,-3.8834,-3.8872,-3.8927,-3.8963,-3.894,-3.9063,-3.9039,-3.9083,-3.9082,-3.9107,-3.9105,-3.9213,-3.9132,-3.9132,-3.9132,-3.9132,0,-3.8256,-3.8326,-3.8388,-3.8439,-3.8518,-3.8557,-3.8634,-3.8672,-3.8727,-3.8786,-3.8806,-3.8861,-3.8907,-3.8968,-3.8997,-3.9077,-3.9095,-3.9114,-3.9121,-3.9112,-3.9109,-3.9135,-3.913,-3.9135,-3.9135,-3.9134,-3.9133,0,-3.8314,-3.8359,-3.8452,-3.8527,-3.8547,-3.8602,-3.8666,-3.8717,-3.8753,-3.8827,-3.8847,-3.8903,-3.8976,-3.9018,-3.9109,-3.9129,-3.9218,-3.9223,-3.9197,-3.92,-3.9241,-3.9236,-3.9369,-3.9388,-3.9295,-3.9296,-3.9297,0,-3.8367,-3.8421,-3.8503,-3.8544,-3.8583,-3.8649,-3.8694,-3.8734,-3.878,-3.8857,-3.8898,-3.8972,-3.9034,-3.9149,-3.9197,-3.9268,-3.9273,-3.9315,-3.9284,-3.9273,-3.9273,-3.9269,-3.9274,-3.932,-3.9321,-3.9322,-3.9322,0,-3.8455,-3.8475,-3.8539,-3.8611,-3.8664,-3.8723,-3.8781,-3.8814,-3.8863,-3.8914,-3.8989,-3.9037,-3.9131,-3.9204,-3.9278,-3.9316,-3.9328,-3.9332,-3.9346,-3.9336,-3.9319,-3.9328,-3.921,-3.9328,-3.9328,-3.9327,-3.9327,-3.9327,-3.8512,-3.8561,-3.8626,-3.8697,-3.8745,-3.8799,-3.885,-3.8893,-3.8957,-3.9036,-3.9056,-3.9135,-3.9198,-3.9299,-3.9339,-3.9401,-3.9393,-3.9413,-3.9418,-3.9422,-3.9423,-3.931,-3.9414,-3.9414,-3.9414,-3.9414,-3.9414,0,-3.8601,-3.8644,-3.8709,-3.879,-3.8845,-3.8852,-3.8917,-3.8963,-3.9032,-3.909,-3.915,-3.9236,-3.9308,-3.9362,-3.9435,-3.9474,-3.948,-3.9491,-3.9488,-3.9497,-3.9426,-3.9406,-3.9484,-3.9484,-3.9484,-3.9484,-3.9484,-3.9484,-3.8654,-3.8737,-3.8764,-3.8871,-3.8913,-3.8991,-3.9027,-3.9077,-3.9124,-3.9219,-3.9279,-3.9314,-3.937,-3.9447,-3.9513,-3.9527,-3.9552,-3.9562,-3.9577,-3.9509,-3.9502,-3.9494,-3.9476,-3.9568,-3.9568,-3.9643,-3.9643,-3.9644]},{"header":{"parameterUnit":"m.s-1","parameterCategory":1,"la1":30.2991,"la2":30.254,"lo1":-89.0895,"lo2":-89.0444,"dy":0.0017,"dx":0.0017,"nx":28,"ny":28,"refTime":"2024-04-27T21:00:00:Z","depth":0,"parameterNumber":3,"parameterNumberName":"V-component_of_WINDS"},"data":[0,0,0,0,0,0,0,0,0,0,0,0,0,0,0,0,0,0,0,0,0,0,0,0,0,0,0,0,0,0,0,0,0,0,0,0,0,0,0,0,0,0,0,0,0,0,0,0,0,0,0,0,0,0,0,0,0,0,5.2749,5.275,0,5.2853,5.2854,5.2856,5.2821,5.2819,5.2816,5.2814,5.2915,5.2919,5.2924,0,0,0,0,0,0,0,0,0,0,0,0,0,5.2512,5.2517,5.2749,5.275,5.2751,5.2853,5.2855,5.2856,5.2821,5.2819,5.2816,5.2813,5.2913,5.2919,5.2924,0,0,0,0,0,0,0,0,0,0,0,0,0,5.2616,5.2518,5.2748,5.2746,5.2747,5.2853,5.2855,5.2856,5.2822,5.2818,5.2815,5.2812,5.2911,5.2918,5.2925,5.3037,0,0,5.2947,5.295,0,0,0,0,0,0,0,0,5.261,5.2624,5.2745,5.2747,5.2748,5.2821,5.2808,5.2917,5.2823,5.2793,5.2814,5.281,5.2886,5.2895,5.2921,5.3041,5.3046,5.2948,5.2952,5.2955,5.2957,0,0,0,0,0,0,0,5.2603,5.262,5.279,5.2747,5.2749,5.2738,5.2749,5.2828,5.2857,5.2796,5.2793,5.2807,5.2886,5.2915,5.2923,5.3047,5.2947,5.2954,5.2958,5.2961,5.3263,5.3267,0,0,0,0,0,0,5.2596,5.2614,5.2786,5.2793,5.2669,5.2745,5.2757,5.2801,5.2856,5.2861,5.2809,5.2805,5.2904,5.2915,5.2927,5.306,5.2955,5.2962,5.2966,5.3259,5.3264,5.3268,0,0,0,0,0,0,5.2591,5.2612,5.2782,5.2703,5.2724,5.2753,5.2802,5.2805,5.2834,5.2867,5.2871,5.2834,5.2902,5.2917,5.301,5.3063,5.2965,5.2971,5.3255,5.3261,5.3266,5.3329,0,0,0,0,0,0,5.2584,5.261,5.2654,5.2704,5.2728,5.2866,5.2805,5.2809,5.2847,5.2842,5.2891,5.2896,5.29,5.3,5.3017,5.3071,5.2977,5.325,5.3257,5.3264,5.3322,5.3336,5.3348,0,0,0,0,0,5.2576,5.2666,5.2657,5.2678,5.2785,5.2869,5.2882,5.2888,5.2851,5.2895,5.2916,5.2894,5.3055,5.3009,5.3029,5.3086,5.3247,5.3255,5.3263,5.3316,5.3333,5.3348,0,0,0,0,0,0,5.2619,5.2673,5.2663,5.2773,5.2817,5.2863,5.2918,5.2906,5.2959,5.2952,5.2954,5.2965,5.3061,5.3083,5.3031,5.3197,5.3145,5.3158,5.3179,5.3195,5.3208,5.3199,5.2983,0,0,0,0,0,5.2642,5.2708,5.2751,5.2843,5.2867,5.2889,5.2926,5.2926,5.2971,5.2989,5.3017,5.3059,5.3119,5.3158,5.3216,5.3326,5.3335,5.3375,5.3388,5.3398,5.3408,5.3467,5.3485,5.3295,5.3295,5.3295,0,0,5.2689,5.2726,5.2768,5.2853,5.2887,5.2954,5.2904,5.2977,5.3025,5.2999,5.3089,5.3111,5.3159,5.3261,5.3307,5.3282,5.3463,5.3409,5.3417,5.3421,5.3477,5.3495,5.3511,5.3301,5.33,5.3299,0,0,5.2808,5.2844,5.2925,5.2961,5.3014,5.3029,5.3048,5.3097,5.3111,5.3202,5.3184,5.3241,5.3344,5.3379,5.341,5.3543,5.3524,5.3562,5.3628,5.3685,5.37,5.3713,5.3759,5.3776,5.3572,5.3572,5.3572,0,5.2858,5.296,5.2967,5.3042,5.3079,5.3061,5.3142,5.3176,5.3244,5.3269,5.3241,5.3371,5.3402,5.3511,5.3544,5.357,5.3591,5.3555,5.3698,5.3711,5.3723,5.3767,5.3785,5.3576,5.3576,5.3575,5.3575,0,5.3019,5.309,5.3148,5.3218,5.3262,5.3339,5.3356,5.3399,5.3396,5.3413,5.3505,5.3542,5.3606,5.3632,5.3629,5.3741,5.3724,5.3697,5.3645,5.3745,5.3786,5.3803,5.3582,5.3581,5.3579,5.3578,0,0,5.3166,5.324,5.3261,5.3292,5.3351,5.3404,5.348,5.3545,5.3581,5.3629,5.3691,5.378,5.3756,5.3791,5.3792,5.3843,5.3944,5.3809,5.381,5.3832,5.4068,5.4087,5.4106,5.3933,5.3936,5.3939,5.4064,0,5.3289,5.3425,5.3434,5.3556,5.362,5.3604,5.367,5.3712,5.3729,5.3785,5.3803,5.3866,5.383,5.3851,5.3901,5.3921,5.3991,5.3913,5.3988,5.3991,5.3976,5.4128,5.4148,5.4264,5.408,5.4083,5.4085,0,5.345,5.3506,5.3635,5.3684,5.3711,5.377,5.383,5.3885,5.3931,5.394,5.398,5.3974,5.405,5.3997,5.41,5.4046,5.4078,5.4093,5.4097,5.4103,5.4043,5.4136,5.4301,5.4318,5.411,5.4108,5.4106,0,5.3543,5.365,5.3741,5.3768,5.3828,5.387,5.3896,5.394,5.3978,5.403,5.4054,5.4114,5.4146,5.4191,5.42,5.4161,5.4303,5.4251,5.431,5.431,5.4339,5.4337,5.451,5.4363,5.4363,5.4362,5.4362,0,5.3679,5.3758,5.3784,5.3839,5.3927,5.3936,5.4021,5.4045,5.4083,5.4142,5.4131,5.4186,5.4195,5.4251,5.4259,5.4342,5.4357,5.4365,5.4366,5.4365,5.4364,5.4384,5.4376,5.4367,5.4366,5.4365,5.4364,0,5.3797,5.3818,5.3915,5.3965,5.3979,5.4041,5.4082,5.4135,5.4152,5.4226,5.4243,5.4269,5.4335,5.4349,5.4426,5.4431,5.453,5.4523,5.4515,5.4514,5.4572,5.4566,5.4763,5.4789,5.4626,5.4628,5.4629,0,5.3881,5.3942,5.3998,5.4038,5.4067,5.413,5.417,5.4181,5.4223,5.428,5.4325,5.439,5.4442,5.4547,5.4572,5.463,5.4624,5.4689,5.4633,5.463,5.4623,5.4619,5.4624,5.4699,5.4701,5.4703,5.4704,0,5.4027,5.4035,5.4094,5.4157,5.4206,5.4255,5.4302,5.4334,5.4351,5.4398,5.4466,5.4507,5.4587,5.465,5.471,5.4734,5.4721,5.4722,5.4738,5.4737,5.473,5.4733,5.4543,5.4717,5.4715,5.4714,5.4714,5.4713,5.413,5.4183,5.4232,5.4298,5.4335,5.4379,5.4431,5.4455,5.4513,5.458,5.4583,5.4657,5.4701,5.4779,5.4808,5.4864,5.4843,5.4868,5.4874,5.4879,5.4884,5.4722,5.4875,5.4874,5.4874,5.4874,5.4873,0,5.4275,5.4306,5.4367,5.4434,5.4486,5.4472,5.4523,5.4566,5.4632,5.4676,5.4728,5.4806,5.4868,5.4898,5.4959,5.4998,5.4993,5.5013,5.5009,5.5015,5.4899,5.4878,5.5016,5.5016,5.5016,5.5016,5.5016,5.5016,5.4356,5.4445,5.4459,5.4565,5.4595,5.4669,5.4699,5.4739,5.4774,5.4862,5.4915,5.4935,5.4972,5.5036,5.5091,5.5098,5.512,5.5143,5.5147,5.5038,5.5023,5.5009,5.499,5.5148,5.5148,5.5258,5.5259,5.5259]}]]